Tracking 19709 objects as of 17-Jun-2019
HD Live streaming from Space Station
objects crossing your sky now

COSMOS 1553

Track COSMOS 1553 now!
10-day predictions
COSMOS 1553 is classified as:


NORAD ID: 14973
Int'l Code: 1984-046A
Perigee: 964.4 km
Apogee: 1,010.9 km
Inclination: 82.9 °
Period: 104.7 minutes
Semi major axis: 7358 km
RCS: 2.1904 m2 (large)
Launch date: May 17, 1984
Source: Commonwealth of Independent States (former USSR) (CIS)
Launch site: PLESETSK MISSILE AND SPACE COMPLEX (PKMTR)
aabbcc
Your satellite tracking list
Your tracking list is empty




NASA's NSSDC Master Catalog

Two Line Element Set (TLE):
1 14973U 84046A   19167.97230796 +.00000056 +00000-0 +42764-4 0  9991
2 14973 082.9352 349.6756 0031578 208.8346 259.2987 13.75335431760189
Source of the keplerian elements: AFSPC